Volver al catálogo

PERSEUS M1

ActivoCienciaSSO
NORAD 40039·PAYLOAD·🇷🇺 Russia

Lanzado Jun 19, 2014 desde Dombarovsky

Loading…

Próximos Pases (próximas 24 horas)

TLE

ActualizadoSource: Space-Track

Época: Sep 14, 2026, 06:38 UTC

1 40039U 14033AF  26257.27684687  .00001674  00000-0  15499-3 0  9996
2 40039  97.9713 202.9122 0011780  10.0804 350.0651 14.95876670663954

Sigue PERSEUS M1 en tiempo real con AllMySat

Download on the App Store